Starlink 3189

operational
NORAD ID: 51464 Int'l Des: 2022-010 Owner: SPXS Country: US Constellation: starlink
LEOCIRCULAR

关于 Starlink 3189

正在加载描述...

实时位置

正在加载3D地球...

即将过境

高度历史

Altitude vs Time

uPlot chart will show altitude changes over time

两行轨道根数

1 51464U 22010J 25303.26590787 .00001964 00000-0 14146-3 0 9991
2 51464 53.2162 144.6179 0001487 88.0489 272.0673 15.08844711207634
Epoch: Oct 30, 2025 • Age: 30 hours

当前状态

高度 549.8 km
速度 7.59 km/s
星下点 -30.83°S, 125.9°E
发射日期 Feb 3, 2022
运行时间 3.7 years
类型 internet

技术详情

分类 Payload
质量 297.00 kg
干质量 275.00 kg
总质量 297.00 kg
长度 0.20 m
直径 2.80 m
跨度 9.00 m
形状 Box + pan
制造商 SPXS
平台类型 Starlink
阶段状态 In Orbit
所有者/国家 SPXS/US

大型星座

Loading constellations...